Location: ??????
(31.2056°N, 45.3906°E)
Time: 18:59:41
(UTC+00:00)

Cosmos 1140 Rocket - Pass Details

Date: 09 April 2020
Orbit: 745 x 767 km, 74.1° (Epoch: 27 May)

Event Time Altitude Azimuth Distance (km) Brightness Sun altitude
Rises 16:39:36 0° 202° (SSW) 3,205 6.7 -16.6°
Reaches altitude 10° 16:41:59 10° 205° (SSW) 2,279 6.0 -17.1°
Maximum altitude 16:47:06 65° 287° (WNW) 827 3.9 -18.1°
Drops below altitude 10° 16:52:14 10° 10° (N) 2,277 6.1 -19.1°
Sets 16:54:37 0° 13° (NNE) 3,201 6.8 -19.6°
